Hourly Data Report for May 09, 2018

TORONTO CITY
ONTARIO
Current Station Operator: ECCC - MSC

43°40'00.000" N
79°24'00.000" W
112.50 m
6158355
71508
XTO

Download Data

Hourly Data (May 2018)
Hourly Data Report for May 9, 2018
TIME
LST
Temp Definition
°C
Dew Point Definition
°C
Rel Hum Definition
%
Precip. Amount Definition
mm

Wind Dir Definition
10's deg

Wind Spd Definition
km/h
Visibility Definition
km
Stn Press Definition
kPa
Hmdx Definition


Wind Chill Definition


Weather Definition


00:00 13.7 2.7 47 0.0 LegendMM LegendMM   100.62     LegendNANA
01:00 13.0 2.7 49 0.0 LegendMM LegendMM   100.57     LegendNANA
02:00 12.8 2.3 49 0.0 LegendMM LegendMM   100.56     LegendNANA
03:00 12.2 3.7 56 0.0 LegendMM LegendMM   100.52     LegendNANA
04:00 12.3 3.4 54 0.0 LegendMM LegendMM   100.50     LegendNANA
05:00 12.1 3.2 55 0.0 LegendMM LegendMM   100.45     LegendNANA
06:00 12.4 3.9 56 0.0 LegendMM LegendMM   100.50     LegendNANA
07:00 13.4 4.5 55 0.0 LegendMM LegendMM   100.50     LegendNANA
08:00 13.5 4.0 52 0.0 LegendMM LegendMM   100.51     LegendNANA
09:00 15.2 5.0 51 0.0 LegendMM LegendMM   100.48     LegendNANA
10:00 17.9 6.3 46 0.0 LegendMM LegendMM   100.42     LegendNANA
11:00 18.7 6.3 44 0.0 LegendMM LegendMM   100.39     LegendNANA
12:00 18.8 6.6 45 0.0 LegendMM LegendMM   100.30     LegendNANA
13:00 20.7 7.3 42 0.0 LegendMM LegendMM   100.22     LegendNANA
14:00 22.5 6.8 36 0.0 LegendMM LegendMM   100.14     LegendNANA
15:00 19.7 6.9 43 0.0 LegendMM LegendMM   100.01     LegendNANA
16:00 16.5 7.6 56 0.0 LegendMM LegendMM   99.94     LegendNANA
17:00 18.6 8.0 50 0.0 LegendMM LegendMM   99.88     LegendNANA
18:00 18.5 8.3 52 0.0 LegendMM LegendMM   99.80     LegendNANA
19:00 17.8 8.1 53 0.0 LegendMM LegendMM   99.73     LegendNANA
20:00 17.6 8.5 55 0.0 LegendMM LegendMM   99.64     LegendNANA
21:00 17.2 8.3 56 0.0 LegendMM LegendMM   99.59     LegendNANA
22:00 17.0 8.6 58 0.0 LegendMM LegendMM   99.51     LegendNANA
23:00 17.2 8.7 57 0.0 LegendMM LegendMM   99.43     LegendNANA

Notes on Data Quality.

Legend

  • E = Estimated
  • M = Missing
  • NA = Not Available*
  • [empty] = Indicates an unobserved value
Date modified: